sat.trackr.live / text

‹ back to catalog

STARLINK-35108

NORAD 65738 · 2025-216E

PAYLOAD ACTIVE UNKNOWN

§ Identity

Operator
Country
US
Launch date
2025-09-25
Launch site
AFETR
Launch vehicle
Mass (kg)
RCS (m²)

Purposes: comms

External: N2YO · Heavens-Above · Gunter

§ Orbital elements

Epoch: 2026-05-24T22:06:33.314688Z

Period
94.10 min
Inclination
53.1610°
Eccentricity
0.0001169
Mean motion
15.30209734 rev/d
Perigee alt
474.4 km
Apogee alt
476.0 km
Semi-major
6,853.3 km
B*
4.6307e-4
RAAN
338.9032°
Arg perigee
79.1882°
Mean anomaly
280.9250°
Rev number
3,826

§ Raw data

STARLINK-351081 65738U 25216E   26144.92121892  .00013385  00000+0  46307-3 0  99982 65738  53.1610 338.9032 0001169  79.1882 280.9250 15.30209734 38266

JSON: /api/v1/satellites/65738 · /tle

For live sub-satellite position, see the globe view (requires WebGL).

§ Visibility from observer

Set your observer location to see the next 7 days of passes ≥ 10°. The values pass through the URL so the page stays shareable.

No JS? Fill the form by hand. The geolocation button needs JavaScript.